Tracking 30692 objects as of 16-Jun-2025
HD Live streaming from Space Station
objects crossing your sky now

STARLINK-30265

Track STARLINK-30265 now!
10-day predictions
STARLINK-30265 is classified as:


NORAD ID: 57646
Int'l Code: 2023-122Q
Perigee: 565.6 km
Apogee: 566.8 km
Inclination: 43.0 °
Period: 95.8 minutes
Semi major axis: 6937 km
RCS: Unknown
Launch date: August 17, 2023
Source: United States (US)
Launch site: AIR FORCE EASTERN TEST RANGE (AFETR)
Your satellite tracking list
Your tracking list is empty




NASA's NSSDC Master Catalog

Two Line Element Set (TLE):
1 57646U 23122Q   25167.19290465  .00000547  00000-0  55540-4 0  9994
2 57646  43.0034 102.7166 0000905 268.3658  91.7080 15.02535711102074
Source of the keplerian elements: AFSPC